TITAN 3C TRANSTAGE DEB, 43283

Orbit data source: Space-Track

TITAN 3C TRANSTAGE DEB, 43283 is space debris in GEO originally from a launch on Sun, 09 Feb 1969 UTC launched from the Air Force Eastern Test Range (AFETR). Debris objects in space refer to the collection of defunct objects orbiting the Earth. Examples of debris include non-operational satellites, rocket bodies, and fragments generated from explosions, collisions, or faulty payload assembly.

Loading next visibility...
Identifier
43283, 1969-013D
Orbit
GEO
Country
Flag of USUS
Related business
Manufacturer
Martin Marietta
Mission
Spacecraft
Bus & Motor
Unknown
Mass
Unknown
Launch date (UTC)
1969-02-09 (57 years ago)
Launch vehicle
Unknown
Launch site
Air Force Eastern Test Range (AFETR)
Object type
Payload
Rocket body
Debris
Shape & HBR
Unknown shape, 1.1 m
Radar Cross Section
RCS unknown

Expand to show TLE details & history
Last TLE update: 1 month ago

TLE from 1 month ago
0 TITAN 3C TRANSTAGE DEB
1 43283U 69013D   25316.32225393 -.00000182  00000-0  00000-0 0  9997
2 43283   0.8419  97.6754 0341572 133.7613 125.4604  0.93099208 26064
Epoch: 2025-11-12T07:44Z
TLE epoch observation values (Epoch: 2025-11-12T07:44:02.739Z)
Latitude
-0.81631°
Longitude
-167.70823°
Altitude
38,840.057 km
Speed
2.938 km/s
True Right ascension
23h 59m 59s
True Declination
0° 48' 56"
Sunlit
Object was in daylight at epoch
Visualization orbit readout
Latitude
Unknown
Longitude
Unknown
Altitude
Unknown
Speed
Unknown
Apparent Right ascension
Unknown
Apparent Declination
Unknown
Sunlit
N/A
Visualization observer readout
Local Sidereal Time
00:31:33
Azimuth
Unknown
Elevation
Unknown
Doppler factor
Unknown
Orbital elements
Apogee altitude
39,439.684 km
Perigee altitude
36,413.049 km
Semi-major axis
44,304.504 km
Eccentricity
0.03416
Inclination
0.8419°
RAAN
97.6754°
Arg. of periapsis
133.7613°
True anomaly
128.56987°
Mean anomaly
125.4604°
Eccentric anomaly
127.02291°
Mean motion
0.23274 °/min
Orbital period
1,546.79 mins
BSTAR
0
Loading maneuver chart data...
Computing Atmospheric mass density...

Documentation

Showing up to 5 results
|